Year,Month,Day,Hour,Minute,Value (Times are PST for windspeed in km/hr)
2017,10,17,00,00,5.70
2017,10,17,00,01,6.40
2017,10,17,00,02,5.70
2017,10,17,00,03,8.40
2017,10,17,00,04,11.20
2017,10,17,00,05,6.40
2017,10,17,00,06,6.60
2017,10,17,00,07,5.20
2017,10,17,00,08,5.50
2017,10,17,00,09,6.00
2017,10,17,00,10,5.90
2017,10,17,00,11,8.10
2017,10,17,00,12,5.20
2017,10,17,00,13,4.70
2017,10,17,00,14,4.20
2017,10,17,00,15,5.00
2017,10,17,00,16,4.80
2017,10,17,00,17,3.70
2017,10,17,00,18,3.90
2017,10,17,00,19,9.30
2017,10,17,00,20,7.20
2017,10,17,00,21,7.50
2017,10,17,00,22,5.20
2017,10,17,00,23,6.60
2017,10,17,00,24,5.40
2017,10,17,00,25,3.90
2017,10,17,00,26,5.50
2017,10,17,00,27,4.40
2017,10,17,00,28,2.80
2017,10,17,00,29,5.80
2017,10,17,00,30,9.00
2017,10,17,00,31,6.10
2017,10,17,00,32,7.50
2017,10,17,00,33,5.40
2017,10,17,00,34,6.80
2017,10,17,00,35,5.60
2017,10,17,00,36,6.20
2017,10,17,00,37,4.20
2017,10,17,00,38,6.60
2017,10,17,00,39,4.30
2017,10,17,00,40,8.10
2017,10,17,00,41,7.70
2017,10,17,00,42,5.30
2017,10,17,00,43,7.20
2017,10,17,00,44,8.10
2017,10,17,00,45,7.30
2017,10,17,00,46,5.10
2017,10,17,00,47,11.10
2017,10,17,00,48,4.50
2017,10,17,00,49,6.20
2017,10,17,00,50,6.90
2017,10,17,00,51,6.20
2017,10,17,00,52,6.50
2017,10,17,00,53,3.00
2017,10,17,00,54,6.80
2017,10,17,00,55,8.10
2017,10,17,00,56,6.20
2017,10,17,00,57,3.90
2017,10,17,00,58,3.10
2017,10,17,00,59,4.10
2017,10,17,01,00,1.50
2017,10,17,01,01,4.00
2017,10,17,01,02,4.40
2017,10,17,01,03,4.70
2017,10,17,01,04,6.60
2017,10,17,01,05,4.20
2017,10,17,01,06,4.80
2017,10,17,01,07,1.00
2017,10,17,01,08,3.20
2017,10,17,01,09,3.50
2017,10,17,01,10,6.80
2017,10,17,01,11,5.00
2017,10,17,01,12,3.60
2017,10,17,01,13,3.40
2017,10,17,01,14,5.30
2017,10,17,01,15,6.00
2017,10,17,01,16,5.00
2017,10,17,01,17,6.20
2017,10,17,01,18,4.20
2017,10,17,01,19,5.00
2017,10,17,01,20,5.50
2017,10,17,01,21,4.40
2017,10,17,01,22,6.30
2017,10,17,01,23,3.70
2017,10,17,01,24,1.60
2017,10,17,01,25,3.00
2017,10,17,01,26,3.20
2017,10,17,01,27,4.00
2017,10,17,01,28,3.10
2017,10,17,01,29,3.70
2017,10,17,01,30,3.20
2017,10,17,01,31,1.90
2017,10,17,01,32,1.80
2017,10,17,01,33,0.80
2017,10,17,01,34,2.00
2017,10,17,01,35,2.40
2017,10,17,01,36,3.40
2017,10,17,01,37,4.60
2017,10,17,01,38,4.50
2017,10,17,01,39,3.60
2017,10,17,01,40,1.50
2017,10,17,01,41,4.50
2017,10,17,01,42,5.40
2017,10,17,01,43,6.90
2017,10,17,01,44,3.90
2017,10,17,01,45,5.10
2017,10,17,01,46,3.80
2017,10,17,01,47,4.40
2017,10,17,01,48,4.00
2017,10,17,01,49,4.00
2017,10,17,01,50,3.90
2017,10,17,01,51,3.60
2017,10,17,01,52,4.80
2017,10,17,01,53,3.30
2017,10,17,01,54,3.70
2017,10,17,01,55,4.30
2017,10,17,01,56,4.30
2017,10,17,01,57,5.60
2017,10,17,01,58,5.00
2017,10,17,01,59,5.60
2017,10,17,02,00,4.70
2017,10,17,02,01,6.40
2017,10,17,02,02,5.40
2017,10,17,02,03,5.10
2017,10,17,02,04,4.10
2017,10,17,02,05,7.70
2017,10,17,02,06,8.10
2017,10,17,02,07,3.50
2017,10,17,02,08,3.40
2017,10,17,02,09,6.00
2017,10,17,02,10,7.00
2017,10,17,02,11,2.60
2017,10,17,02,12,3.30
2017,10,17,02,13,5.10
2017,10,17,02,14,4.50
2017,10,17,02,15,6.60
2017,10,17,02,16,9.70
2017,10,17,02,17,7.10
2017,10,17,02,18,7.10
2017,10,17,02,19,7.10
2017,10,17,02,20,5.50
2017,10,17,02,21,5.90
2017,10,17,02,22,0.60
2017,10,17,02,23,1.40
2017,10,17,02,24,1.90
2017,10,17,02,25,6.80
2017,10,17,02,26,5.10
2017,10,17,02,27,5.60
2017,10,17,02,28,6.50
2017,10,17,02,29,1.00
2017,10,17,02,30,5.20
2017,10,17,02,31,5.30
2017,10,17,02,32,3.30
2017,10,17,02,33,4.10
2017,10,17,02,34,5.70
2017,10,17,02,35,5.10
2017,10,17,02,36,6.50
2017,10,17,02,37,9.30
2017,10,17,02,38,9.60
2017,10,17,02,39,8.10
2017,10,17,02,40,8.50
2017,10,17,02,41,4.30
2017,10,17,02,42,4.60
2017,10,17,02,43,9.00
2017,10,17,02,44,12.00
2017,10,17,02,45,8.10
2017,10,17,02,46,9.20
2017,10,17,02,47,5.60
2017,10,17,02,48,7.00
2017,10,17,02,49,7.30
2017,10,17,02,50,9.70
2017,10,17,02,51,6.10
2017,10,17,02,52,6.20
2017,10,17,02,53,5.60
2017,10,17,02,54,7.90
2017,10,17,02,55,6.10
2017,10,17,02,56,4.90
2017,10,17,02,57,7.70
2017,10,17,02,58,5.10
2017,10,17,02,59,5.80
2017,10,17,03,00,7.80
2017,10,17,03,01,6.20
2017,10,17,03,02,5.90
2017,10,17,03,03,3.40
2017,10,17,03,04,5.80
2017,10,17,03,05,6.00
2017,10,17,03,06,4.10
2017,10,17,03,07,6.00
2017,10,17,03,08,5.80
2017,10,17,03,09,3.50
2017,10,17,03,10,7.30
2017,10,17,03,11,5.30
2017,10,17,03,12,5.90
2017,10,17,03,13,8.90
2017,10,17,03,14,9.80
2017,10,17,03,15,6.40
2017,10,17,03,16,5.60
2017,10,17,03,17,5.10
2017,10,17,03,18,4.60
2017,10,17,03,19,5.10
2017,10,17,03,20,7.00
2017,10,17,03,21,6.80
2017,10,17,03,22,5.10
2017,10,17,03,23,6.00
2017,10,17,03,24,8.50
2017,10,17,03,25,9.30
2017,10,17,03,26,8.70
2017,10,17,03,27,8.10
2017,10,17,03,28,8.20
2017,10,17,03,29,7.50
2017,10,17,03,30,9.30
2017,10,17,03,31,7.10
2017,10,17,03,32,7.40
2017,10,17,03,33,8.20
2017,10,17,03,34,8.30
2017,10,17,03,35,7.20
2017,10,17,03,36,8.60
2017,10,17,03,37,6.80
2017,10,17,03,38,6.40
2017,10,17,03,39,9.80
2017,10,17,03,40,6.90
2017,10,17,03,41,6.10
2017,10,17,03,42,7.70
2017,10,17,03,43,9.90
2017,10,17,03,44,8.00
2017,10,17,03,45,7.00
2017,10,17,03,46,8.20
2017,10,17,03,47,5.40
2017,10,17,03,48,6.30
2017,10,17,03,49,7.50
2017,10,17,03,50,5.20
2017,10,17,03,51,8.50
2017,10,17,03,52,8.50
2017,10,17,03,53,6.90
2017,10,17,03,54,10.10
2017,10,17,03,55,7.00
2017,10,17,03,56,9.30
2017,10,17,03,57,12.20
2017,10,17,03,58,10.10
2017,10,17,03,59,4.80
2017,10,17,04,00,11.80
2017,10,17,04,01,5.20
2017,10,17,04,02,3.70
2017,10,17,04,03,5.90
2017,10,17,04,04,7.70
2017,10,17,04,05,8.70
2017,10,17,04,06,6.00
2017,10,17,04,07,10.00
2017,10,17,04,08,8.20
2017,10,17,04,09,8.50
2017,10,17,04,10,8.00
2017,10,17,04,11,8.60
2017,10,17,04,12,7.20
2017,10,17,04,13,8.90
2017,10,17,04,14,9.60
2017,10,17,04,15,5.40
2017,10,17,04,16,7.30
2017,10,17,04,17,8.60
2017,10,17,04,18,9.60
2017,10,17,04,19,8.10
2017,10,17,04,20,8.90
2017,10,17,04,21,7.40
2017,10,17,04,22,7.70
2017,10,17,04,23,6.80
2017,10,17,04,24,11.70
2017,10,17,04,25,11.30
2017,10,17,04,26,8.10
2017,10,17,04,27,7.40
2017,10,17,04,28,8.10
2017,10,17,04,29,6.90
2017,10,17,04,30,6.50
2017,10,17,04,31,8.50
2017,10,17,04,32,5.60
2017,10,17,04,33,6.80
2017,10,17,04,34,4.70
2017,10,17,04,35,8.00
2017,10,17,04,36,7.60
2017,10,17,04,37,8.40
2017,10,17,04,38,8.50
2017,10,17,04,39,8.40
2017,10,17,04,40,12.40
2017,10,17,04,41,5.80
2017,10,17,04,42,5.20
2017,10,17,04,43,7.40
2017,10,17,04,44,6.50
2017,10,17,04,45,6.60
2017,10,17,04,46,8.00
2017,10,17,04,47,11.60
2017,10,17,04,48,7.90
2017,10,17,04,49,7.60
2017,10,17,04,50,8.60
2017,10,17,04,51,5.70
2017,10,17,04,52,10.60
2017,10,17,04,53,3.90
2017,10,17,04,54,6.20
2017,10,17,04,55,7.70
2017,10,17,04,56,6.70
2017,10,17,04,57,5.60
2017,10,17,04,58,6.10
2017,10,17,04,59,6.00
2017,10,17,05,00,7.00
2017,10,17,05,01,5.70
2017,10,17,05,02,5.80
2017,10,17,05,03,6.60
2017,10,17,05,04,4.40
2017,10,17,05,05,5.00
2017,10,17,05,06,5.20
2017,10,17,05,07,5.70
2017,10,17,05,08,6.30
2017,10,17,05,09,5.80
2017,10,17,05,10,5.20
2017,10,17,05,11,3.60
2017,10,17,05,12,3.70
2017,10,17,05,13,5.00
2017,10,17,05,14,4.00
2017,10,17,05,15,2.80
2017,10,17,05,16,4.90
2017,10,17,05,17,5.50
2017,10,17,05,18,4.10
2017,10,17,05,19,6.20
2017,10,17,05,20,6.10
2017,10,17,05,21,4.80
2017,10,17,05,22,6.20
2017,10,17,05,23,7.90
2017,10,17,05,24,7.20
2017,10,17,05,25,6.30
2017,10,17,05,26,5.60
2017,10,17,05,27,7.70
2017,10,17,05,28,6.60
2017,10,17,05,29,6.20
2017,10,17,05,30,7.00
2017,10,17,05,31,5.20
2017,10,17,05,32,5.40
2017,10,17,05,33,5.00
2017,10,17,05,34,7.90
2017,10,17,05,35,10.10
2017,10,17,05,36,6.40
2017,10,17,05,37,9.30
2017,10,17,05,38,8.00
2017,10,17,05,39,8.40
2017,10,17,05,40,8.20
2017,10,17,05,41,10.90
2017,10,17,05,42,9.60
2017,10,17,05,43,10.50
2017,10,17,05,44,9.60
2017,10,17,05,45,8.80
2017,10,17,05,46,10.60
2017,10,17,05,47,7.30
2017,10,17,05,48,10.90
2017,10,17,05,49,9.50
2017,10,17,05,50,9.20
2017,10,17,05,51,6.20
2017,10,17,05,52,12.00
2017,10,17,05,53,6.40
2017,10,17,05,54,13.40
2017,10,17,05,55,10.30
2017,10,17,05,56,9.90
2017,10,17,05,57,6.70
2017,10,17,05,58,7.40
2017,10,17,05,59,9.00
2017,10,17,06,00,8.40
2017,10,17,06,01,8.30
2017,10,17,06,02,10.20
2017,10,17,06,03,7.50
2017,10,17,06,04,8.80
2017,10,17,06,05,6.40
2017,10,17,06,06,8.90
2017,10,17,06,07,8.20
2017,10,17,06,08,9.20
2017,10,17,06,09,9.70
2017,10,17,06,10,7.20
2017,10,17,06,11,6.70
2017,10,17,06,12,8.40
2017,10,17,06,13,8.90
2017,10,17,06,14,6.10
2017,10,17,06,15,7.10
2017,10,17,06,16,5.10
2017,10,17,06,17,4.40
2017,10,17,06,18,8.40
2017,10,17,06,19,5.80
2017,10,17,06,20,7.10
2017,10,17,06,21,6.60
2017,10,17,06,22,10.20
2017,10,17,06,23,9.10
2017,10,17,06,24,9.90
2017,10,17,06,25,4.80
2017,10,17,06,26,6.50
2017,10,17,06,27,7.20
2017,10,17,06,28,8.70
2017,10,17,06,29,8.40
2017,10,17,06,30,7.10
2017,10,17,06,31,5.50
2017,10,17,06,32,3.00
2017,10,17,06,33,5.30
2017,10,17,06,34,6.40
2017,10,17,06,35,5.10
2017,10,17,06,36,5.80
2017,10,17,06,37,6.70
2017,10,17,06,38,8.00
2017,10,17,06,39,8.70
2017,10,17,06,40,9.90
2017,10,17,06,41,6.80
2017,10,17,06,42,5.90
2017,10,17,06,43,6.40
2017,10,17,06,44,4.30
2017,10,17,06,45,5.10
2017,10,17,06,46,9.30
2017,10,17,06,47,9.70
2017,10,17,06,48,11.30
2017,10,17,06,49,5.40
2017,10,17,06,50,9.90
2017,10,17,06,51,4.70
2017,10,17,06,52,4.20
2017,10,17,06,53,3.90
2017,10,17,06,54,7.90
2017,10,17,06,55,7.40
2017,10,17,06,56,4.20
2017,10,17,06,57,5.10
2017,10,17,06,58,5.30
2017,10,17,06,59,6.70
2017,10,17,07,00,6.80
2017,10,17,07,01,3.60
2017,10,17,07,02,5.00
2017,10,17,07,03,7.90
2017,10,17,07,04,5.30
2017,10,17,07,05,6.50
2017,10,17,07,06,9.30
2017,10,17,07,07,8.10
2017,10,17,07,08,5.50
2017,10,17,07,09,5.80
2017,10,17,07,10,5.50
2017,10,17,07,11,5.60
2017,10,17,07,12,7.30
2017,10,17,07,13,5.40
2017,10,17,07,14,6.10
2017,10,17,07,15,4.50
2017,10,17,07,16,5.00
2017,10,17,07,17,2.80
2017,10,17,07,18,6.00
2017,10,17,07,19,3.20
2017,10,17,07,20,6.00
2017,10,17,07,21,6.40
2017,10,17,07,22,2.40
2017,10,17,07,23,2.00
2017,10,17,07,24,8.70
2017,10,17,07,25,5.40
2017,10,17,07,26,3.20
2017,10,17,07,27,5.20
2017,10,17,07,28,15.10
2017,10,17,07,29,15.90
2017,10,17,07,30,13.80
2017,10,17,07,31,13.70
2017,10,17,07,32,7.40
2017,10,17,07,33,0.40
2017,10,17,07,34,8.50
2017,10,17,07,35,8.90
2017,10,17,07,36,3.60
2017,10,17,07,37,4.30
2017,10,17,07,38,7.90
2017,10,17,07,39,3.70
2017,10,17,07,40,1.70
2017,10,17,07,41,4.00
2017,10,17,07,42,3.10
2017,10,17,07,43,2.30
2017,10,17,07,44,3.50
2017,10,17,07,45,4.00
2017,10,17,07,46,4.10
2017,10,17,07,47,3.00
2017,10,17,07,48,3.90
2017,10,17,07,49,1.80
2017,10,17,07,50,9.10
2017,10,17,07,51,3.10
2017,10,17,07,52,4.30
2017,10,17,07,53,3.50
2017,10,17,07,54,3.40
2017,10,17,07,55,3.60
2017,10,17,07,56,2.00
2017,10,17,07,57,2.20
2017,10,17,07,58,2.70
2017,10,17,07,59,2.70
2017,10,17,08,00,0.90
2017,10,17,08,01,0.00
2017,10,17,08,02,0.90
2017,10,17,08,03,6.60
2017,10,17,08,04,3.30
2017,10,17,08,05,3.20
2017,10,17,08,06,3.70
2017,10,17,08,07,3.60
2017,10,17,08,08,4.50
2017,10,17,08,09,2.60
2017,10,17,08,10,2.20
2017,10,17,08,11,5.10
2017,10,17,08,12,4.80
2017,10,17,08,13,4.00
2017,10,17,08,14,3.50
2017,10,17,08,15,8.50
2017,10,17,08,16,2.40
2017,10,17,08,17,7.50
2017,10,17,08,18,2.50
2017,10,17,08,19,6.50
2017,10,17,08,20,3.30
2017,10,17,08,21,6.70
2017,10,17,08,22,4.60
2017,10,17,08,23,3.60
2017,10,17,08,24,5.00
2017,10,17,08,25,9.30
2017,10,17,08,26,4.10
2017,10,17,08,27,6.00
2017,10,17,08,28,7.50
2017,10,17,08,29,3.70
2017,10,17,08,30,2.10
2017,10,17,08,31,0.10
2017,10,17,08,32,1.30
2017,10,17,08,33,1.30
2017,10,17,08,34,1.80
2017,10,17,08,35,0.00
2017,10,17,08,36,0.20
2017,10,17,08,37,2.80
2017,10,17,08,38,1.80
2017,10,17,08,39,2.20
2017,10,17,08,40,3.00
2017,10,17,08,41,2.50
2017,10,17,08,42,0.60
2017,10,17,08,43,0.10
2017,10,17,08,44,2.10
2017,10,17,08,45,0.00
2017,10,17,08,46,0.00
2017,10,17,08,47,0.10
2017,10,17,08,48,2.60
2017,10,17,08,49,0.90
2017,10,17,08,50,4.70
2017,10,17,08,51,7.70
2017,10,17,08,52,3.40
2017,10,17,08,53,3.70
2017,10,17,08,54,4.30
2017,10,17,08,55,0.70
2017,10,17,08,56,2.00
2017,10,17,08,57,2.20
2017,10,17,08,58,8.00
2017,10,17,08,59,1.50
2017,10,17,09,00,1.00
2017,10,17,09,01,1.40
2017,10,17,09,02,0.00
2017,10,17,09,03,0.20
2017,10,17,09,04,1.40
2017,10,17,09,05,1.00
2017,10,17,09,06,1.70
2017,10,17,09,07,0.00
2017,10,17,09,08,5.30
2017,10,17,09,09,5.20
2017,10,17,09,10,3.90
2017,10,17,09,11,2.60
2017,10,17,09,12,5.10
2017,10,17,09,13,7.20
2017,10,17,09,14,0.50
2017,10,17,09,15,4.70
2017,10,17,09,16,6.50
2017,10,17,09,17,9.40
2017,10,17,09,18,11.30
2017,10,17,09,19,1.50
2017,10,17,09,20,6.80
2017,10,17,09,21,4.30
2017,10,17,09,22,7.80
2017,10,17,09,23,3.70
2017,10,17,09,24,3.30
2017,10,17,09,25,8.30
2017,10,17,09,26,7.70
2017,10,17,09,27,6.80
2017,10,17,09,28,6.20
2017,10,17,09,29,5.60
2017,10,17,09,30,7.80
2017,10,17,09,31,4.00
2017,10,17,09,32,1.80
2017,10,17,09,33,1.50
2017,10,17,09,34,1.20
2017,10,17,09,35,2.40
2017,10,17,09,36,5.20
2017,10,17,09,37,1.60
2017,10,17,09,38,0.00
2017,10,17,09,39,0.00
2017,10,17,09,40,0.60
2017,10,17,09,41,1.00
2017,10,17,09,42,8.80
2017,10,17,09,43,14.70
2017,10,17,09,44,4.10
2017,10,17,09,45,1.80
2017,10,17,09,46,6.70
2017,10,17,09,47,2.70
2017,10,17,09,48,2.50
2017,10,17,09,49,3.80
2017,10,17,09,50,1.50
2017,10,17,09,51,4.40
2017,10,17,09,52,1.80
2017,10,17,09,53,1.70
2017,10,17,09,54,1.40
2017,10,17,09,55,4.30
2017,10,17,09,56,6.40
2017,10,17,09,57,7.60
2017,10,17,09,58,3.10
2017,10,17,09,59,6.00
2017,10,17,10,00,4.40
2017,10,17,10,01,9.20
2017,10,17,10,02,8.30
2017,10,17,10,03,2.00
2017,10,17,10,04,1.70
2017,10,17,10,05,1.60
2017,10,17,10,06,8.90
2017,10,17,10,07,2.10
2017,10,17,10,08,1.20
2017,10,17,10,09,2.90
2017,10,17,10,10,3.10
2017,10,17,10,11,2.40
2017,10,17,10,12,6.00
2017,10,17,10,13,5.70
2017,10,17,10,14,7.80
2017,10,17,10,15,4.40
2017,10,17,10,16,2.80
2017,10,17,10,17,3.80
2017,10,17,10,18,5.10
2017,10,17,10,19,6.00
2017,10,17,10,20,1.90
2017,10,17,10,21,6.00
2017,10,17,10,22,2.70
2017,10,17,10,23,4.30
2017,10,17,10,24,2.80
2017,10,17,10,25,4.70
2017,10,17,10,26,5.00
2017,10,17,10,27,2.20
2017,10,17,10,28,0.80
2017,10,17,10,29,2.40
2017,10,17,10,30,1.80
2017,10,17,10,31,1.10
2017,10,17,10,32,2.10
2017,10,17,10,33,4.30
2017,10,17,10,34,3.10
2017,10,17,10,35,2.80
2017,10,17,10,36,2.80
2017,10,17,10,37,2.60
2017,10,17,10,38,1.80
2017,10,17,10,39,2.90
2017,10,17,10,40,3.80
2017,10,17,10,41,3.00
2017,10,17,10,42,1.50
2017,10,17,10,43,1.00
2017,10,17,10,44,3.60
2017,10,17,10,45,4.50
2017,10,17,10,46,3.80
2017,10,17,10,47,3.90
2017,10,17,10,48,2.60
2017,10,17,10,49,3.90
2017,10,17,10,50,0.80
2017,10,17,10,51,3.30
2017,10,17,10,52,3.50
2017,10,17,10,53,2.40
2017,10,17,10,54,1.40
2017,10,17,10,55,3.90
2017,10,17,10,56,5.00
2017,10,17,10,57,2.50
2017,10,17,10,58,3.90
2017,10,17,10,59,1.40
2017,10,17,11,00,3.70
2017,10,17,11,01,2.70
2017,10,17,11,02,3.40
2017,10,17,11,03,3.10
2017,10,17,11,04,3.10
2017,10,17,11,05,4.80
2017,10,17,11,06,3.90
2017,10,17,11,07,6.00
2017,10,17,11,08,4.00
2017,10,17,11,09,2.20
2017,10,17,11,10,3.20
2017,10,17,11,11,3.00
2017,10,17,11,12,5.00
2017,10,17,11,13,4.30
2017,10,17,11,14,4.90
2017,10,17,11,15,2.20
2017,10,17,11,16,3.00
2017,10,17,11,17,4.40
2017,10,17,11,18,2.30
2017,10,17,11,19,1.40
2017,10,17,11,20,3.10
2017,10,17,11,21,5.10
2017,10,17,11,22,2.30
2017,10,17,11,23,2.80
2017,10,17,11,24,4.50
2017,10,17,11,25,4.30
2017,10,17,11,26,2.60
2017,10,17,11,27,3.60
2017,10,17,11,28,3.60
2017,10,17,11,29,1.30
2017,10,17,11,30,2.00
2017,10,17,11,31,2.20
2017,10,17,11,32,5.30
2017,10,17,11,33,4.30
2017,10,17,11,34,5.10
2017,10,17,11,35,6.00
2017,10,17,11,36,3.80
2017,10,17,11,37,4.30
2017,10,17,11,38,3.80
2017,10,17,11,39,2.90
2017,10,17,11,40,4.80
2017,10,17,11,41,5.00
2017,10,17,11,42,2.90
2017,10,17,11,43,3.20
2017,10,17,11,44,3.50
2017,10,17,11,45,2.00
2017,10,17,11,46,4.60
2017,10,17,11,47,2.20
2017,10,17,11,48,2.00
2017,10,17,11,49,3.10
2017,10,17,11,50,3.30
2017,10,17,11,51,3.00
2017,10,17,11,52,4.10
2017,10,17,11,53,4.40
2017,10,17,11,54,4.80
2017,10,17,11,55,4.80
2017,10,17,11,56,5.00
2017,10,17,11,57,5.40
2017,10,17,11,58,4.70
2017,10,17,11,59,5.10
2017,10,17,12,00,4.30
2017,10,17,12,01,3.10
2017,10,17,12,02,5.30
2017,10,17,12,03,5.30
2017,10,17,12,04,4.40
2017,10,17,12,05,4.30
2017,10,17,12,06,5.00
2017,10,17,12,07,4.60
2017,10,17,12,08,1.80
2017,10,17,12,09,2.90
2017,10,17,12,10,4.20
2017,10,17,12,11,5.10
2017,10,17,12,12,4.10
2017,10,17,12,13,3.20
2017,10,17,12,14,3.60
2017,10,17,12,15,4.20
2017,10,17,12,16,1.90
2017,10,17,12,17,1.90
2017,10,17,12,18,0.00
2017,10,17,12,19,3.30
2017,10,17,12,20,5.30
2017,10,17,12,21,3.70
2017,10,17,12,22,4.80
2017,10,17,12,23,1.70
2017,10,17,12,24,1.50
2017,10,17,12,25,2.30
2017,10,17,12,26,6.40
2017,10,17,12,27,5.50
2017,10,17,12,28,3.90
2017,10,17,12,29,1.90
2017,10,17,12,30,5.60
2017,10,17,12,31,7.10
2017,10,17,12,32,4.00
2017,10,17,12,33,2.00
2017,10,17,12,34,2.80
2017,10,17,12,35,2.20
2017,10,17,12,36,2.30
2017,10,17,12,37,2.40
2017,10,17,12,38,4.70
2017,10,17,12,39,3.30
2017,10,17,12,40,4.30
2017,10,17,12,41,3.90
2017,10,17,12,42,5.40
2017,10,17,12,43,3.90
2017,10,17,12,44,5.80
2017,10,17,12,45,4.60
2017,10,17,12,46,4.20
2017,10,17,12,47,3.20
2017,10,17,12,48,2.10
2017,10,17,12,49,4.20
2017,10,17,12,50,2.70
2017,10,17,12,51,4.60
2017,10,17,12,52,5.10
2017,10,17,12,53,4.60
2017,10,17,12,54,5.30
2017,10,17,12,55,3.50
2017,10,17,12,56,4.70
2017,10,17,12,57,4.90
2017,10,17,12,58,4.10
2017,10,17,12,59,4.10
2017,10,17,13,00,2.80
2017,10,17,13,01,0.90
2017,10,17,13,02,2.00
2017,10,17,13,03,4.60
2017,10,17,13,04,2.90
2017,10,17,13,05,4.50
2017,10,17,13,06,2.60
2017,10,17,13,07,1.50
2017,10,17,13,08,4.90
2017,10,17,13,09,4.30
2017,10,17,13,10,7.80
2017,10,17,13,11,5.80
2017,10,17,13,12,4.30
2017,10,17,13,13,4.30
2017,10,17,13,14,5.60
2017,10,17,13,15,4.70
2017,10,17,13,16,5.00
2017,10,17,13,17,5.70
2017,10,17,13,18,5.80
2017,10,17,13,19,6.30
2017,10,17,13,20,5.60
2017,10,17,13,21,5.80
2017,10,17,13,22,5.10
2017,10,17,13,23,4.40
2017,10,17,13,24,4.70
2017,10,17,13,25,5.10
2017,10,17,13,26,7.30
2017,10,17,13,27,6.40
2017,10,17,13,28,5.10
2017,10,17,13,29,4.40
2017,10,17,13,30,4.70
2017,10,17,13,31,4.40
2017,10,17,13,32,5.90
2017,10,17,13,33,4.00
2017,10,17,13,34,4.00
2017,10,17,13,35,3.80
2017,10,17,13,36,3.50
2017,10,17,13,37,3.60
2017,10,17,13,38,1.60
2017,10,17,13,39,0.90
2017,10,17,13,40,1.20
2017,10,17,13,41,1.50
2017,10,17,13,42,0.20
2017,10,17,13,43,2.40
2017,10,17,13,44,2.30
2017,10,17,13,45,5.20
2017,10,17,13,46,5.60
2017,10,17,13,47,6.80
2017,10,17,13,48,5.80
2017,10,17,13,49,2.00
2017,10,17,13,50,4.10
2017,10,17,13,51,4.20
2017,10,17,13,52,3.90
2017,10,17,13,53,5.10
2017,10,17,13,54,2.90
2017,10,17,13,55,4.50
2017,10,17,13,56,6.10
2017,10,17,13,57,3.90
2017,10,17,13,58,7.50
2017,10,17,13,59,5.90
2017,10,17,14,00,2.70
2017,10,17,14,01,1.30
2017,10,17,14,02,5.00
2017,10,17,14,03,6.80
2017,10,17,14,04,5.00
2017,10,17,14,05,4.60
2017,10,17,14,06,3.10
2017,10,17,14,07,5.10
2017,10,17,14,08,2.90
2017,10,17,14,09,3.80
2017,10,17,14,10,5.30
2017,10,17,14,11,3.90
2017,10,17,14,12,5.60
2017,10,17,14,13,4.60
2017,10,17,14,14,5.60
2017,10,17,14,15,4.10
2017,10,17,14,16,2.70
2017,10,17,14,17,3.90
2017,10,17,14,18,5.60
2017,10,17,14,19,4.10
2017,10,17,14,20,2.80
2017,10,17,14,21,2.70
2017,10,17,14,22,0.10
2017,10,17,14,23,0.60
2017,10,17,14,24,1.00
2017,10,17,14,25,2.10
2017,10,17,14,26,2.10
2017,10,17,14,27,0.30
2017,10,17,14,28,0.10
2017,10,17,14,29,0.00
2017,10,17,14,30,0.00
2017,10,17,14,31,0.10
2017,10,17,14,32,0.00
2017,10,17,14,33,0.00
2017,10,17,14,34,0.00
2017,10,17,14,35,0.00
2017,10,17,14,36,0.10
2017,10,17,14,37,1.60
2017,10,17,14,38,2.90
2017,10,17,14,39,0.60
2017,10,17,14,40,0.00
2017,10,17,14,41,2.60
2017,10,17,14,42,5.10
2017,10,17,14,43,6.40
2017,10,17,14,44,4.10
2017,10,17,14,45,4.50
2017,10,17,14,46,4.50
2017,10,17,14,47,3.90
2017,10,17,14,48,2.50
2017,10,17,14,49,1.40
2017,10,17,14,50,2.60
2017,10,17,14,51,2.30
2017,10,17,14,52,1.80
2017,10,17,14,53,4.10
2017,10,17,14,54,2.90
2017,10,17,14,55,3.10
2017,10,17,14,56,3.30
2017,10,17,14,57,4.40
2017,10,17,14,58,3.50
2017,10,17,14,59,3.50
2017,10,17,15,00,4.70
2017,10,17,15,01,6.80
2017,10,17,15,02,3.90
2017,10,17,15,03,4.50
2017,10,17,15,04,4.10
2017,10,17,15,05,3.90
2017,10,17,15,06,3.50
2017,10,17,15,07,3.50
2017,10,17,15,08,3.20
2017,10,17,15,09,2.60
2017,10,17,15,10,3.50
2017,10,17,15,11,2.70
2017,10,17,15,12,1.90
2017,10,17,15,13,3.10
2017,10,17,15,14,1.30
2017,10,17,15,15,2.10
2017,10,17,15,16,2.00
2017,10,17,15,17,1.70
2017,10,17,15,18,0.60
2017,10,17,15,19,2.00
2017,10,17,15,20,1.80
2017,10,17,15,21,0.40
2017,10,17,15,22,0.10
2017,10,17,15,23,0.00
2017,10,17,15,24,2.60
2017,10,17,15,25,2.00
2017,10,17,15,26,3.00
2017,10,17,15,27,2.60
2017,10,17,15,28,3.40
2017,10,17,15,29,2.80
2017,10,17,15,30,2.80
2017,10,17,15,31,3.00
2017,10,17,15,32,1.50
2017,10,17,15,33,0.00
2017,10,17,15,34,1.00
2017,10,17,15,35,0.00
2017,10,17,15,36,0.00
2017,10,17,15,37,0.00
2017,10,17,15,38,0.00
2017,10,17,15,39,0.90
2017,10,17,15,40,0.60
2017,10,17,15,41,0.90
2017,10,17,15,42,0.40
2017,10,17,15,43,2.10
2017,10,17,15,44,2.80
2017,10,17,15,45,2.40
2017,10,17,15,46,3.40
2017,10,17,15,47,2.60
2017,10,17,15,48,3.20
2017,10,17,15,49,1.80
2017,10,17,15,50,0.00
2017,10,17,15,51,2.10
2017,10,17,15,52,1.00
2017,10,17,15,53,0.00
2017,10,17,15,54,0.00
2017,10,17,15,55,1.60
2017,10,17,15,56,0.90
2017,10,17,15,57,0.00
2017,10,17,15,58,0.00
2017,10,17,15,59,0.00
2017,10,17,16,00,0.00
2017,10,17,16,01,1.80
2017,10,17,16,02,1.80
2017,10,17,16,03,0.30
2017,10,17,16,04,1.50
2017,10,17,16,05,1.20
2017,10,17,16,06,0.20
2017,10,17,16,07,2.20
2017,10,17,16,08,0.70
2017,10,17,16,09,2.30
2017,10,17,16,10,2.60
2017,10,17,16,11,1.90
2017,10,17,16,12,0.20
2017,10,17,16,13,0.00
2017,10,17,16,14,1.80
2017,10,17,16,15,1.90
2017,10,17,16,16,1.80
2017,10,17,16,17,0.50
2017,10,17,16,18,0.00
2017,10,17,16,19,0.00
2017,10,17,16,20,0.00
2017,10,17,16,21,0.00
2017,10,17,16,22,0.00
2017,10,17,16,23,0.20
2017,10,17,16,24,0.60
2017,10,17,16,25,0.00
2017,10,17,16,26,0.00
2017,10,17,16,27,0.00
2017,10,17,16,28,0.10
2017,10,17,16,29,2.40
2017,10,17,16,30,0.70
2017,10,17,16,31,2.00
2017,10,17,16,32,0.80
2017,10,17,16,33,0.00
2017,10,17,16,34,0.00
2017,10,17,16,35,0.00
2017,10,17,16,36,0.00
2017,10,17,16,37,0.00
2017,10,17,16,38,0.00
2017,10,17,16,39,0.00
2017,10,17,16,40,0.00
2017,10,17,16,41,0.00
2017,10,17,16,42,0.00
2017,10,17,16,43,0.00
2017,10,17,16,44,0.00
2017,10,17,16,45,0.70
2017,10,17,16,46,3.00
2017,10,17,16,47,3.60
2017,10,17,16,48,2.60
2017,10,17,16,49,2.30
2017,10,17,16,50,0.80
2017,10,17,16,51,3.90
2017,10,17,16,52,3.30
2017,10,17,16,53,2.60
2017,10,17,16,54,1.50
2017,10,17,16,55,0.00
2017,10,17,16,56,0.00
2017,10,17,16,57,2.80
2017,10,17,16,58,3.50
2017,10,17,16,59,0.70
2017,10,17,17,00,0.10
2017,10,17,17,01,0.00
2017,10,17,17,02,0.00
2017,10,17,17,03,0.00
2017,10,17,17,04,0.90
2017,10,17,17,05,4.70
2017,10,17,17,06,4.20
2017,10,17,17,07,3.60
2017,10,17,17,08,4.30
2017,10,17,17,09,4.10
2017,10,17,17,10,2.60
2017,10,17,17,11,1.20
2017,10,17,17,12,0.90
2017,10,17,17,13,0.50
2017,10,17,17,14,0.20
2017,10,17,17,15,0.60
2017,10,17,17,16,0.90
2017,10,17,17,17,1.60
2017,10,17,17,18,3.60
2017,10,17,17,19,0.90
2017,10,17,17,20,0.20
2017,10,17,17,21,2.90
2017,10,17,17,22,3.30
2017,10,17,17,23,2.20
2017,10,17,17,24,3.60
2017,10,17,17,25,1.30
2017,10,17,17,26,3.90
2017,10,17,17,27,0.20
2017,10,17,17,28,0.90
2017,10,17,17,29,0.50
2017,10,17,17,30,2.50
2017,10,17,17,31,0.70
2017,10,17,17,32,1.50
2017,10,17,17,33,1.80
2017,10,17,17,34,0.00
2017,10,17,17,35,0.00
2017,10,17,17,36,0.00
2017,10,17,17,37,0.00
2017,10,17,17,38,0.70
2017,10,17,17,39,3.20
2017,10,17,17,40,0.40
2017,10,17,17,41,0.00
2017,10,17,17,42,2.70
2017,10,17,17,43,0.10
2017,10,17,17,44,1.00
2017,10,17,17,45,1.60
2017,10,17,17,46,3.50
2017,10,17,17,47,2.00
2017,10,17,17,48,1.00
2017,10,17,17,49,1.90
2017,10,17,17,50,1.70
2017,10,17,17,51,0.10
2017,10,17,17,52,0.00
2017,10,17,17,53,0.00
2017,10,17,17,54,0.00
2017,10,17,17,55,0.00
2017,10,17,17,56,0.60
2017,10,17,17,57,0.30
2017,10,17,17,58,0.00
2017,10,17,17,59,0.00
2017,10,17,18,00,3.20
2017,10,17,18,01,2.20
2017,10,17,18,02,2.20
2017,10,17,18,03,1.90
2017,10,17,18,04,1.30
2017,10,17,18,05,3.10